#timestamp,LO_Frequency,Hit,StdDev 
1572400815.8,286047000.1,N
1572400835.6,286047002.2,N
1572400855.5,286047001.6,N
1572400875.3,286046999.8,N
1572400895.1,286047000.4,N
1572400915.9,286047002.0,N
1572400935.7,286047003.7,Y
1572400955.5,286047002.4,P
1572400975.4,286047002.0,N
1572400995.2,286047002.1,P
1572401015.0,286047002.4,Y
1572401015.9,286047002.4,P
1572401035.8,286047001.1,P
1572401055.6,286047000.7,N
1572401075.4,286046998.6,N
1572401095.3,286046998.7,N
1572401115.1,286046998.5,N
1572401116.0,286046998.5,N
1572401135.8,286047000.6,N
1572401155.7,286047000.9,N
1572401175.5,286047000.1,N
1572401195.3,286047000.1,N
1572401215.2,286047002.8,N
1572401235.9,286047002.0,N
1572401255.7,286047001.4,N
1572401275.6,286047001.9,N
1572401295.4,286047002.2,N
1572401315.2,286047001.3,N
1572401335.1,286047001.7,N
1572401336.0,286047001.7,N
1572401355.8,286047001.5,N
1572401375.6,286047002.6,N
1572401395.5,286047003.8,N
1572401415.3,286047005.8,Y
1572401435.1,286047003.0,P
1572401455.9,286047003.1,P
1572401475.7,286047004.3,P
1572401495.5,286047003.4,N
1572401515.4,286047004.6,Y
1572401535.2,286047002.2,P
1572401555.0,286047004.1,P
1572401555.9,286047004.1,P
1572401575.8,286047001.9,N
1572401595.6,286047000.0,N
1572401615.4,286047002.0,N
1572401635.3,286047002.0,N
1572401655.1,286047002.4,N
1572401656.0,286047002.4,N
1572401675.8,286047001.3,N
1572401695.7,286047002.9,N
1572401715.5,286047005.7,Y
1572401735.3,286047001.7,P
1572401755.2,286047002.2,P
1572401775.9,286047001.0,P
1572401795.7,286047000.4,N
1572401815.6,286047000.3,N
1572401835.4,286046999.8,N
1572401855.2,286047000.2,N
1572401875.1,286047000.1,N
1572401876.0,286047000.1,N
1572401895.8,286046999.7,N
1572401915.6,286047000.6,N
1572401935.5,286047002.3,N
1572401955.3,286047001.6,N
1572401975.1,286047002.7,N
1572401995.9,286047002.2,N
1572402015.7,286047002.0,N
1572402035.5,286047002.5,N
1572402055.4,286047002.7,N
1572402075.2,286047002.3,N
1572402095.0,286047001.8,N
1572402095.9,286047001.8,N
1572402115.8,286047004.1,Y
1572402135.6,286047002.6,P
1572402155.4,286047002.8,P
1572402175.3,286047002.0,P
1572402195.1,286047002.7,Y
1572402215.8,286047002.0,P
1572402235.7,286047002.6,P
1572402255.5,286047002.2,P
1572402275.3,286047001.9,Y
1572402295.2,286046999.0,P
1572402315.9,286046996.9,N
1572402335.7,286046999.0,N
1572402355.6,286047000.8,N
1572402375.4,286047001.2,N
1572402395.2,286046997.3,N
1572402415.1,286046997.2,N
1572402416.0,286046997.2,N
1572402435.8,286046998.7,N
1572402455.6,286046997.0,N
1572402475.5,286046996.7,N
1572402495.3,286046995.0,N
1572402515.1,286046997.8,N
1572402535.9,286046997.8,N
1572402555.7,286047001.1,N
1572402575.5,286046998.4,N
1572402595.4,286046999.3,N
1572402615.2,286046998.7,N
1572402635.0,286047000.8,N
1572402635.9,286047000.8,N
1572402655.8,286047000.5,N
1572402675.6,286047000.4,N
1572402695.4,286046998.2,N
1572402715.3,286047001.2,N
1572402735.1,286046999.5,N
1572402755.8,286046999.6,N
1572402775.7,286047000.9,N
1572402795.5,286047000.2,N
1572402815.3,286047000.7,N
1572402835.2,286046999.9,N
1572402855.9,286047000.0,N
1572402875.7,286047000.1,N
1572402895.6,286047002.3,N
1572402915.4,286047002.8,N
1572402935.2,286047002.6,N
1572402955.1,286047001.2,N
1572402956.0,286047001.2,N
1572402975.8,286047000.7,N
1572402995.6,286047000.2,N
1572403015.5,286047000.2,N
1572403035.3,286047000.7,N
1572403055.1,286047001.0,N
1572403075.9,286047002.1,N
1572403095.7,286047002.2,N
1572403115.5,286047002.1,N
1572403135.4,286047002.2,N
1572403155.2,286047002.3,N
1572403175.0,286047001.5,N
1572403175.9,286047001.5,N
1572403195.8,286047002.5,N
1572403215.6,286047004.3,Y
1572403235.4,286047001.0,P
1572403255.3,286047002.3,P
1572403275.1,286047000.0,N
1572403276.0,286047000.0,N
1572403295.8,286047002.4,N
1572403315.7,286047002.4,N
1572403335.5,286047000.1,N
1572403355.3,286046999.7,N
1572403375.2,286047002.7,N
1572403395.9,286047004.3,Y
1572403415.7,286047001.6,P
1572403435.6,286047002.5,P
1572403455.4,286046999.9,N
1572403475.2,286047000.7,N
1572403495.1,286046999.8,N
1572403496.0,286046999.8,N
1572403515.8,286047000.1,N
1572403535.6,286047001.5,N
1572403555.5,286047001.8,N
1572403575.3,286047003.6,Y
1572403595.1,286047002.4,P
1572403615.9,286047002.1,N
1572403635.7,286047001.8,N
1572403655.5,286047001.7,N
1572403675.4,286046999.7,N
1572403695.2,286047001.9,N
1572403715.0,286047004.0,Y
1572403715.9,286047004.0,P
1572403735.8,286047002.0,N
1572403755.6,286047002.5,N
1572403775.4,286047000.0,N
1572403795.3,286047000.3,N
1572403815.1,286047000.2,N
1572403835.8,286047001.5,N
1572403855.7,286047003.5,N
1572403875.5,286047001.5,N
1572403895.3,286047002.0,N
1572403915.2,286046999.7,N
1572403935.0,286047000.7,N
1572403935.9,286047000.7,N
1572403955.7,286047000.6,N
1572403975.6,286046999.8,N
1572403995.4,286047002.1,N
1572404015.2,286047001.9,N
1572404035.1,286047002.3,N
1572404036.0,286047002.3,N
1572404055.8,286047002.0,N
1572404075.6,286047000.1,N
1572404095.5,286047002.4,N
1572404115.3,286047001.3,N
1572404135.1,286047002.1,N
1572404155.9,286047002.6,N
1572404175.7,286047002.6,N
1572404195.5,286047004.1,Y
1572404215.4,286047004.2,P
1572404235.2,286047005.5,P
1572404255.0,286047003.1,N
1572404255.9,286047003.1,N
1572404275.8,286047005.5,Y
1572404295.6,286047000.0,P
1572404315.4,286046999.2,N
1572404365.3,286047003.8,E
1572404375.2,286047002.7,N
1572404395.1,286046998.9,P
1572404396.0,286046998.9,N
